Year,Month,Day,Hour,Minute,Value (Times are PST for temperature in C)
2017,10,15,00,00,8.00
2017,10,15,00,01,8.00
2017,10,15,00,02,8.00
2017,10,15,00,03,8.00
2017,10,15,00,04,8.00
2017,10,15,00,05,8.00
2017,10,15,00,06,8.00
2017,10,15,00,07,8.00
2017,10,15,00,08,8.00
2017,10,15,00,09,8.00
2017,10,15,00,10,8.00
2017,10,15,00,11,8.00
2017,10,15,00,12,8.00
2017,10,15,00,13,8.00
2017,10,15,00,14,8.00
2017,10,15,00,15,8.00
2017,10,15,00,16,8.00
2017,10,15,00,17,8.00
2017,10,15,00,18,8.10
2017,10,15,00,19,8.10
2017,10,15,00,20,8.10
2017,10,15,00,21,8.10
2017,10,15,00,22,8.10
2017,10,15,00,23,8.10
2017,10,15,00,24,8.10
2017,10,15,00,25,8.10
2017,10,15,00,26,8.10
2017,10,15,00,27,8.10
2017,10,15,00,28,8.10
2017,10,15,00,29,8.10
2017,10,15,00,30,8.10
2017,10,15,00,31,8.10
2017,10,15,00,32,8.10
2017,10,15,00,33,8.10
2017,10,15,00,34,8.10
2017,10,15,00,35,8.10
2017,10,15,00,36,8.10
2017,10,15,00,37,8.10
2017,10,15,00,38,8.10
2017,10,15,00,39,8.10
2017,10,15,00,40,8.20
2017,10,15,00,41,8.20
2017,10,15,00,42,8.20
2017,10,15,00,43,8.20
2017,10,15,00,44,8.20
2017,10,15,00,45,8.20
2017,10,15,00,46,8.20
2017,10,15,00,47,8.20
2017,10,15,00,48,8.20
2017,10,15,00,49,8.20
2017,10,15,00,50,8.20
2017,10,15,00,51,8.20
2017,10,15,00,52,8.20
2017,10,15,00,53,8.20
2017,10,15,00,54,8.20
2017,10,15,00,55,8.20
2017,10,15,00,56,8.20
2017,10,15,00,57,8.20
2017,10,15,00,58,8.20
2017,10,15,00,59,8.20
2017,10,15,01,00,8.20
2017,10,15,01,01,8.20
2017,10,15,01,02,8.20
2017,10,15,01,03,8.20
2017,10,15,01,04,8.20
2017,10,15,01,05,8.20
2017,10,15,01,06,8.10
2017,10,15,01,07,8.10
2017,10,15,01,08,8.10
2017,10,15,01,09,8.10
2017,10,15,01,10,8.10
2017,10,15,01,11,8.10
2017,10,15,01,12,8.10
2017,10,15,01,13,8.20
2017,10,15,01,14,8.20
2017,10,15,01,15,8.20
2017,10,15,01,16,8.20
2017,10,15,01,17,8.20
2017,10,15,01,18,8.20
2017,10,15,01,19,8.20
2017,10,15,01,20,8.20
2017,10,15,01,21,8.20
2017,10,15,01,22,8.20
2017,10,15,01,23,8.20
2017,10,15,01,24,8.20
2017,10,15,01,25,8.20
2017,10,15,01,26,8.20
2017,10,15,01,27,8.20
2017,10,15,01,28,8.20
2017,10,15,01,29,8.20
2017,10,15,01,30,8.20
2017,10,15,01,31,8.20
2017,10,15,01,32,8.20
2017,10,15,01,33,8.20
2017,10,15,01,34,8.20
2017,10,15,01,35,8.20
2017,10,15,01,36,8.20
2017,10,15,01,37,8.20
2017,10,15,01,38,8.20
2017,10,15,01,39,8.20
2017,10,15,01,40,8.20
2017,10,15,01,41,8.20
2017,10,15,01,42,8.10
2017,10,15,01,43,8.10
2017,10,15,01,44,8.10
2017,10,15,01,45,8.10
2017,10,15,01,46,8.10
2017,10,15,01,47,8.10
2017,10,15,01,48,8.10
2017,10,15,01,49,8.10
2017,10,15,01,50,8.10
2017,10,15,01,51,8.10
2017,10,15,01,52,8.10
2017,10,15,01,53,8.10
2017,10,15,01,54,8.10
2017,10,15,01,55,8.10
2017,10,15,01,56,8.10
2017,10,15,01,57,8.10
2017,10,15,01,58,8.10
2017,10,15,01,59,8.10
2017,10,15,02,00,8.10
2017,10,15,02,01,8.10
2017,10,15,02,02,8.10
2017,10,15,02,03,8.10
2017,10,15,02,04,8.10
2017,10,15,02,05,8.10
2017,10,15,02,06,8.10
2017,10,15,02,07,8.10
2017,10,15,02,08,8.10
2017,10,15,02,09,8.10
2017,10,15,02,10,8.10
2017,10,15,02,11,8.10
2017,10,15,02,12,8.00
2017,10,15,02,13,8.10
2017,10,15,02,14,8.00
2017,10,15,02,15,8.00
2017,10,15,02,16,8.10
2017,10,15,02,17,8.00
2017,10,15,02,18,8.00
2017,10,15,02,19,8.00
2017,10,15,02,20,8.00
2017,10,15,02,21,8.00
2017,10,15,02,22,8.00
2017,10,15,02,23,8.00
2017,10,15,02,24,8.00
2017,10,15,02,25,8.00
2017,10,15,02,26,8.00
2017,10,15,02,27,7.90
2017,10,15,02,28,7.90
2017,10,15,02,29,7.90
2017,10,15,02,30,7.90
2017,10,15,02,31,7.90
2017,10,15,02,32,7.90
2017,10,15,02,33,7.90
2017,10,15,02,34,7.90
2017,10,15,02,35,7.90
2017,10,15,02,36,7.90
2017,10,15,02,37,7.90
2017,10,15,02,38,7.90
2017,10,15,02,39,7.90
2017,10,15,02,40,7.90
2017,10,15,02,41,7.90
2017,10,15,02,42,7.90
2017,10,15,02,43,7.90
2017,10,15,02,44,7.90
2017,10,15,02,45,7.90
2017,10,15,02,46,7.90
2017,10,15,02,47,7.90
2017,10,15,02,48,7.90
2017,10,15,02,49,7.90
2017,10,15,02,50,7.90
2017,10,15,02,51,7.90
2017,10,15,02,52,7.90
2017,10,15,02,53,7.90
2017,10,15,02,54,7.90
2017,10,15,02,55,7.90
2017,10,15,02,56,7.90
2017,10,15,02,57,7.90
2017,10,15,02,58,7.90
2017,10,15,02,59,7.80
2017,10,15,03,00,7.80
2017,10,15,03,01,7.90
2017,10,15,03,02,7.80
2017,10,15,03,03,7.80
2017,10,15,03,04,7.80
2017,10,15,03,05,7.80
2017,10,15,03,06,7.80
2017,10,15,03,07,7.80
2017,10,15,03,08,7.80
2017,10,15,03,09,7.80
2017,10,15,03,10,7.80
2017,10,15,03,11,7.80
2017,10,15,03,12,7.80
2017,10,15,03,13,7.80
2017,10,15,03,14,7.80
2017,10,15,03,15,7.80
2017,10,15,03,16,7.80
2017,10,15,03,17,7.80
2017,10,15,03,18,7.80
2017,10,15,03,19,7.80
2017,10,15,03,20,7.70
2017,10,15,03,21,7.70
2017,10,15,03,22,7.70
2017,10,15,03,23,7.70
2017,10,15,03,24,7.70
2017,10,15,03,25,7.70
2017,10,15,03,26,7.70
2017,10,15,03,27,7.60
2017,10,15,03,28,7.60
2017,10,15,03,29,7.60
2017,10,15,03,30,7.60
2017,10,15,03,31,7.60
2017,10,15,03,32,7.60
2017,10,15,03,33,7.50
2017,10,15,03,34,7.50
2017,10,15,03,35,7.40
2017,10,15,03,36,7.40
2017,10,15,03,37,7.40
2017,10,15,03,38,7.40
2017,10,15,03,39,7.30
2017,10,15,03,40,7.30
2017,10,15,03,41,7.30
2017,10,15,03,42,7.30
2017,10,15,03,43,7.20
2017,10,15,03,44,7.20
2017,10,15,03,45,7.20
2017,10,15,03,46,7.20
2017,10,15,03,47,7.20
2017,10,15,03,48,7.20
2017,10,15,03,49,7.20
2017,10,15,03,50,7.20
2017,10,15,03,51,7.20
2017,10,15,03,52,7.10
2017,10,15,03,53,7.10
2017,10,15,03,54,7.10
2017,10,15,03,55,7.10
2017,10,15,03,56,7.10
2017,10,15,03,57,7.10
2017,10,15,03,58,7.00
2017,10,15,03,59,7.00
2017,10,15,04,00,7.00
2017,10,15,04,01,7.00
2017,10,15,04,02,7.00
2017,10,15,04,03,6.90
2017,10,15,04,04,6.90
2017,10,15,04,05,6.90
2017,10,15,04,06,6.90
2017,10,15,04,07,6.90
2017,10,15,04,08,6.90
2017,10,15,04,09,6.80
2017,10,15,04,10,6.80
2017,10,15,04,11,6.80
2017,10,15,04,12,6.80
2017,10,15,04,13,6.80
2017,10,15,04,14,6.80
2017,10,15,04,15,6.80
2017,10,15,04,16,6.70
2017,10,15,04,17,6.70
2017,10,15,04,18,6.70
2017,10,15,04,19,6.70
2017,10,15,04,20,6.70
2017,10,15,04,21,6.70
2017,10,15,04,22,6.60
2017,10,15,04,23,6.60
2017,10,15,04,24,6.60
2017,10,15,04,25,6.60
2017,10,15,04,26,6.60
2017,10,15,04,27,6.50
2017,10,15,04,28,6.50
2017,10,15,04,29,6.50
2017,10,15,04,30,6.40
2017,10,15,04,31,6.40
2017,10,15,04,32,6.40
2017,10,15,04,33,6.40
2017,10,15,04,34,6.40
2017,10,15,04,35,6.40
2017,10,15,04,36,6.30
2017,10,15,04,37,6.30
2017,10,15,04,38,6.30
2017,10,15,04,39,6.30
2017,10,15,04,40,6.30
2017,10,15,04,41,6.30
2017,10,15,04,42,6.20
2017,10,15,04,43,6.20
2017,10,15,04,44,6.20
2017,10,15,04,45,6.20
2017,10,15,04,46,6.20
2017,10,15,04,47,6.10
2017,10,15,04,48,6.10
2017,10,15,04,49,6.10
2017,10,15,04,50,6.10
2017,10,15,04,51,6.10
2017,10,15,04,52,6.10
2017,10,15,04,53,6.10
2017,10,15,04,54,6.00
2017,10,15,04,55,6.10
2017,10,15,04,56,6.00
2017,10,15,04,57,6.00
2017,10,15,04,58,6.00
2017,10,15,04,59,6.10
2017,10,15,05,00,6.00
2017,10,15,05,01,6.00
2017,10,15,05,02,6.00
2017,10,15,05,03,6.10
2017,10,15,05,04,6.00
2017,10,15,05,05,6.00
2017,10,15,05,06,6.00
2017,10,15,05,07,6.00
2017,10,15,05,08,6.00
2017,10,15,05,09,6.00
2017,10,15,05,10,6.00
2017,10,15,05,11,5.90
2017,10,15,05,12,5.90
2017,10,15,05,13,5.90
2017,10,15,05,14,5.90
2017,10,15,05,15,5.90
2017,10,15,05,16,5.90
2017,10,15,05,17,5.90
2017,10,15,05,18,5.90
2017,10,15,05,19,5.80
2017,10,15,05,20,5.80
2017,10,15,05,21,5.80
2017,10,15,05,22,5.80
2017,10,15,05,23,5.80
2017,10,15,05,24,5.80
2017,10,15,05,25,5.80
2017,10,15,05,26,5.80
2017,10,15,05,27,5.80
2017,10,15,05,28,5.70
2017,10,15,05,29,5.70
2017,10,15,05,30,5.70
2017,10,15,05,31,5.70
2017,10,15,05,32,5.70
2017,10,15,05,33,5.70
2017,10,15,05,34,5.70
2017,10,15,05,35,5.70
2017,10,15,05,36,5.70
2017,10,15,05,37,5.70
2017,10,15,05,38,5.70
2017,10,15,05,39,5.70
2017,10,15,05,40,5.70
2017,10,15,05,41,5.70
2017,10,15,05,42,5.70
2017,10,15,05,43,5.70
2017,10,15,05,44,5.70
2017,10,15,05,45,5.70
2017,10,15,05,46,5.60
2017,10,15,05,47,5.60
2017,10,15,05,48,5.60
2017,10,15,05,49,5.60
2017,10,15,05,50,5.60
2017,10,15,05,51,5.60
2017,10,15,05,52,5.60
2017,10,15,05,53,5.60
2017,10,15,05,54,5.50
2017,10,15,05,55,5.50
2017,10,15,05,56,5.50
2017,10,15,05,57,5.50
2017,10,15,05,58,5.40
2017,10,15,05,59,5.40
2017,10,15,06,00,5.40
2017,10,15,06,01,5.40
2017,10,15,06,02,5.40
2017,10,15,06,03,5.40
2017,10,15,06,04,5.40
2017,10,15,06,05,5.30
2017,10,15,06,06,5.30
2017,10,15,06,07,5.30
2017,10,15,06,08,5.30
2017,10,15,06,09,5.30
2017,10,15,06,10,5.20
2017,10,15,06,11,5.20
2017,10,15,06,12,5.20
2017,10,15,06,13,5.20
2017,10,15,06,14,5.20
2017,10,15,06,15,5.20
2017,10,15,06,16,5.10
2017,10,15,06,17,5.10
2017,10,15,06,18,5.10
2017,10,15,06,19,5.10
2017,10,15,06,20,5.10
2017,10,15,06,21,5.10
2017,10,15,06,22,5.10
2017,10,15,06,23,5.10
2017,10,15,06,24,5.10
2017,10,15,06,25,5.10
2017,10,15,06,26,5.00
2017,10,15,06,27,5.00
2017,10,15,06,28,5.00
2017,10,15,06,29,5.00
2017,10,15,06,30,5.00
2017,10,15,06,31,5.00
2017,10,15,06,32,4.90
2017,10,15,06,33,4.90
2017,10,15,06,34,4.90
2017,10,15,06,35,4.90
2017,10,15,06,36,4.90
2017,10,15,06,37,4.90
2017,10,15,06,38,4.90
2017,10,15,06,39,4.90
2017,10,15,06,40,4.90
2017,10,15,06,41,4.90
2017,10,15,06,42,4.90
2017,10,15,06,43,4.80
2017,10,15,06,44,4.80
2017,10,15,06,45,4.80
2017,10,15,06,46,4.80
2017,10,15,06,47,4.80
2017,10,15,06,48,4.80
2017,10,15,06,49,4.80
2017,10,15,06,50,4.80
2017,10,15,06,51,4.80
2017,10,15,06,52,4.80
2017,10,15,06,53,4.80
2017,10,15,06,54,4.80
2017,10,15,06,55,4.80
2017,10,15,06,56,4.70
2017,10,15,06,57,4.70
2017,10,15,06,58,4.70
2017,10,15,06,59,4.70
2017,10,15,07,00,4.70
2017,10,15,07,01,4.70
2017,10,15,07,02,4.70
2017,10,15,07,03,4.70
2017,10,15,07,04,4.70
2017,10,15,07,05,4.70
2017,10,15,07,06,4.70
2017,10,15,07,07,4.60
2017,10,15,07,08,4.60
2017,10,15,07,09,4.60
2017,10,15,07,10,4.60
2017,10,15,07,11,4.60
2017,10,15,07,12,4.60
2017,10,15,07,13,4.60
2017,10,15,07,14,4.60
2017,10,15,07,15,4.60
2017,10,15,07,16,4.60
2017,10,15,07,17,4.60
2017,10,15,07,18,4.60
2017,10,15,07,19,4.60
2017,10,15,07,20,4.60
2017,10,15,07,21,4.60
2017,10,15,07,22,4.60
2017,10,15,07,23,4.60
2017,10,15,07,24,4.60
2017,10,15,07,25,4.60
2017,10,15,07,26,4.60
2017,10,15,07,27,4.60
2017,10,15,07,28,4.60
2017,10,15,07,29,4.60
2017,10,15,07,30,4.60
2017,10,15,07,31,4.60
2017,10,15,07,32,4.60
2017,10,15,07,33,4.60
2017,10,15,07,34,4.60
2017,10,15,07,35,4.60
2017,10,15,07,36,4.60
2017,10,15,07,37,4.60
2017,10,15,07,38,4.60
2017,10,15,07,39,4.50
2017,10,15,07,40,4.50
2017,10,15,07,41,4.50
2017,10,15,07,42,4.50
2017,10,15,07,43,4.50
2017,10,15,07,44,4.50
2017,10,15,07,45,4.50
2017,10,15,07,46,4.50
2017,10,15,07,47,4.40
2017,10,15,07,48,4.40
2017,10,15,07,49,4.40
2017,10,15,07,50,4.40
2017,10,15,07,51,4.40
2017,10,15,07,52,4.40
2017,10,15,07,53,4.40
2017,10,15,07,54,4.40
2017,10,15,07,55,4.40
2017,10,15,07,56,4.40
2017,10,15,07,57,4.40
2017,10,15,07,58,4.40
2017,10,15,07,59,4.40
2017,10,15,08,00,4.40
2017,10,15,08,01,4.40
2017,10,15,08,02,4.40
2017,10,15,08,03,4.40
2017,10,15,08,04,4.40
2017,10,15,08,05,4.40
2017,10,15,08,06,4.40
2017,10,15,08,07,4.40
2017,10,15,08,08,4.40
2017,10,15,08,09,4.40
2017,10,15,08,10,4.40
2017,10,15,08,11,4.40
2017,10,15,08,12,4.40
2017,10,15,08,13,4.40
2017,10,15,08,14,4.30
2017,10,15,08,15,4.40
2017,10,15,08,16,4.40
2017,10,15,08,17,4.40
2017,10,15,08,18,4.40
2017,10,15,08,19,4.40
2017,10,15,08,20,4.40
2017,10,15,08,21,4.40
2017,10,15,08,22,4.40
2017,10,15,08,23,4.40
2017,10,15,08,24,4.40
2017,10,15,08,25,4.40
2017,10,15,08,26,4.40
2017,10,15,08,27,4.40
2017,10,15,08,28,4.40
2017,10,15,08,29,4.40
2017,10,15,08,30,4.40
2017,10,15,08,31,4.40
2017,10,15,08,32,4.40
2017,10,15,08,33,4.40
2017,10,15,08,34,4.40
2017,10,15,08,35,4.40
2017,10,15,08,36,4.40
2017,10,15,08,37,4.40
2017,10,15,08,38,4.40
2017,10,15,08,39,4.40
2017,10,15,08,40,4.40
2017,10,15,08,41,4.40
2017,10,15,08,42,4.40
2017,10,15,08,43,4.40
2017,10,15,08,44,4.40
2017,10,15,08,45,4.40
2017,10,15,08,46,4.40
2017,10,15,08,47,4.40
2017,10,15,08,48,4.40
2017,10,15,08,49,4.40
2017,10,15,08,50,4.40
2017,10,15,08,51,4.40
2017,10,15,08,52,4.40
2017,10,15,08,53,4.50
2017,10,15,08,54,4.50
2017,10,15,08,55,4.50
2017,10,15,08,56,4.50
2017,10,15,08,57,4.50
2017,10,15,08,58,4.50
2017,10,15,08,59,4.50
2017,10,15,09,00,4.50
2017,10,15,09,01,4.50
2017,10,15,09,02,4.50
2017,10,15,09,03,4.50
2017,10,15,09,04,4.50
2017,10,15,09,05,4.60
2017,10,15,09,06,4.50
2017,10,15,09,07,4.60
2017,10,15,09,08,4.60
2017,10,15,09,09,4.60
2017,10,15,09,10,4.60
2017,10,15,09,11,4.60
2017,10,15,09,12,4.60
2017,10,15,09,13,4.60
2017,10,15,09,14,4.60
2017,10,15,09,15,4.60
2017,10,15,09,16,4.60
2017,10,15,09,17,4.60
2017,10,15,09,18,4.60
2017,10,15,09,19,4.60
2017,10,15,09,20,4.60
2017,10,15,09,21,4.60
2017,10,15,09,22,4.60
2017,10,15,09,23,4.60
2017,10,15,09,24,4.70
2017,10,15,09,25,4.70
2017,10,15,09,26,4.70
2017,10,15,09,27,4.70
2017,10,15,09,28,4.70
2017,10,15,09,29,4.70
2017,10,15,09,30,4.70
2017,10,15,09,31,4.70
2017,10,15,09,32,4.70
2017,10,15,09,33,4.70
2017,10,15,09,34,4.70
2017,10,15,09,35,4.80
2017,10,15,09,36,4.80
2017,10,15,09,37,4.80
2017,10,15,09,38,4.80
2017,10,15,09,39,4.80
2017,10,15,09,40,4.80
2017,10,15,09,41,4.90
2017,10,15,09,42,4.90
2017,10,15,09,43,4.90
2017,10,15,09,44,4.90
2017,10,15,09,45,5.00
2017,10,15,09,46,5.00
2017,10,15,09,47,5.10
2017,10,15,09,48,5.10
2017,10,15,09,49,5.10
2017,10,15,09,50,5.20
2017,10,15,09,51,5.20
2017,10,15,09,52,5.30
2017,10,15,09,53,5.30
2017,10,15,09,54,5.30
2017,10,15,09,55,5.40
2017,10,15,09,56,5.40
2017,10,15,09,57,5.40
2017,10,15,09,58,5.40
2017,10,15,09,59,5.40
2017,10,15,10,00,5.50
2017,10,15,10,01,5.50
2017,10,15,10,02,5.50
2017,10,15,10,03,5.60
2017,10,15,10,04,5.60
2017,10,15,10,05,5.60
2017,10,15,10,06,5.60
2017,10,15,10,07,5.60
2017,10,15,10,08,5.70
2017,10,15,10,09,5.70
2017,10,15,10,10,5.70
2017,10,15,10,11,5.70
2017,10,15,10,12,5.80
2017,10,15,10,13,5.80
2017,10,15,10,14,5.80
2017,10,15,10,15,5.90
2017,10,15,10,16,5.90
2017,10,15,10,17,5.90
2017,10,15,10,18,5.90
2017,10,15,10,19,6.00
2017,10,15,10,20,6.00
2017,10,15,10,21,6.10
2017,10,15,10,22,6.10
2017,10,15,10,23,6.20
2017,10,15,10,24,6.20
2017,10,15,10,25,6.20
2017,10,15,10,26,6.30
2017,10,15,10,27,6.30
2017,10,15,10,28,6.30
2017,10,15,10,29,6.30
2017,10,15,10,30,6.40
2017,10,15,10,31,6.40
2017,10,15,10,32,6.40
2017,10,15,10,33,6.40
2017,10,15,10,34,6.40
2017,10,15,10,35,6.50
2017,10,15,10,36,6.50
2017,10,15,10,37,6.50
2017,10,15,10,38,6.60
2017,10,15,10,39,6.60
2017,10,15,10,40,6.60
2017,10,15,10,41,6.60
2017,10,15,10,42,6.70
2017,10,15,10,43,6.70
2017,10,15,10,44,6.70
2017,10,15,10,45,6.70
2017,10,15,10,46,6.80
2017,10,15,10,47,6.80
2017,10,15,10,48,6.80
2017,10,15,10,49,6.90
2017,10,15,10,50,6.90
2017,10,15,10,51,6.90
2017,10,15,10,52,6.90
2017,10,15,10,53,7.00
2017,10,15,10,54,7.00
2017,10,15,10,55,7.00
2017,10,15,10,56,7.10
2017,10,15,10,57,7.10
2017,10,15,10,58,7.10
2017,10,15,10,59,7.20
2017,10,15,11,00,7.20
2017,10,15,11,01,7.20
2017,10,15,11,02,7.20
2017,10,15,11,03,7.20
2017,10,15,11,04,7.30
2017,10,15,11,05,7.30
2017,10,15,11,06,7.30
2017,10,15,11,07,7.30
2017,10,15,11,08,7.40
2017,10,15,11,09,7.40
2017,10,15,11,10,7.50
2017,10,15,11,11,7.50
2017,10,15,11,12,7.50
2017,10,15,11,13,7.60
2017,10,15,11,14,7.60
2017,10,15,11,15,7.60
2017,10,15,11,16,7.70
2017,10,15,11,17,7.70
2017,10,15,11,18,7.70
2017,10,15,11,19,7.80
2017,10,15,11,20,7.80
2017,10,15,11,21,7.90
2017,10,15,11,22,7.90
2017,10,15,11,23,8.00
2017,10,15,11,24,8.00
2017,10,15,11,25,8.10
2017,10,15,11,26,8.10
2017,10,15,11,27,8.20
2017,10,15,11,28,8.30
2017,10,15,11,29,8.30
2017,10,15,11,30,8.40
2017,10,15,11,31,8.40
2017,10,15,11,32,8.50
2017,10,15,11,33,8.50
2017,10,15,11,34,8.60
2017,10,15,11,35,8.70
2017,10,15,11,36,8.70
2017,10,15,11,37,8.80
2017,10,15,11,38,8.80
2017,10,15,11,39,8.90
2017,10,15,11,40,8.90
2017,10,15,11,41,9.00
2017,10,15,11,42,9.10
2017,10,15,11,43,9.20
2017,10,15,11,44,9.20
2017,10,15,11,45,9.30
2017,10,15,11,46,9.30
2017,10,15,11,47,9.40
2017,10,15,11,48,9.50
2017,10,15,11,49,9.60
2017,10,15,11,50,9.60
2017,10,15,11,51,9.70
2017,10,15,11,52,9.70
2017,10,15,11,53,9.80
2017,10,15,11,54,9.80
2017,10,15,11,55,9.90
2017,10,15,11,56,9.90
2017,10,15,11,57,10.00
2017,10,15,11,58,10.10
2017,10,15,11,59,10.20
2017,10,15,12,00,10.20
2017,10,15,12,01,10.30
2017,10,15,12,02,10.30
2017,10,15,12,03,10.40
2017,10,15,12,04,10.40
2017,10,15,12,05,10.40
2017,10,15,12,06,10.50
2017,10,15,12,07,10.50
2017,10,15,12,08,10.60
2017,10,15,12,09,10.60
2017,10,15,12,10,10.70
2017,10,15,12,11,10.70
2017,10,15,12,12,10.80
2017,10,15,12,13,10.80
2017,10,15,12,14,10.90
2017,10,15,12,15,10.90
2017,10,15,12,16,11.00
2017,10,15,12,17,11.10
2017,10,15,12,18,11.20
2017,10,15,12,19,11.20
2017,10,15,12,20,11.30
2017,10,15,12,21,11.40
2017,10,15,12,22,11.40
2017,10,15,12,23,11.40
2017,10,15,12,24,11.40
2017,10,15,12,25,11.50
2017,10,15,12,26,11.50
2017,10,15,12,27,11.50
2017,10,15,12,28,11.50
2017,10,15,12,29,11.60
2017,10,15,12,30,11.60
2017,10,15,12,31,11.60
2017,10,15,12,32,11.60
2017,10,15,12,33,11.60
2017,10,15,12,34,11.60
2017,10,15,12,35,11.60
2017,10,15,12,36,11.60
2017,10,15,12,37,11.60
2017,10,15,12,38,11.60
2017,10,15,12,39,11.70
2017,10,15,12,40,11.70
2017,10,15,12,41,11.70
2017,10,15,12,42,11.80
2017,10,15,12,43,11.80
2017,10,15,12,44,11.80
2017,10,15,12,45,11.90
2017,10,15,12,46,11.90
2017,10,15,12,47,11.90
2017,10,15,12,48,11.90
2017,10,15,12,49,11.90
2017,10,15,12,50,11.90
2017,10,15,12,51,11.90
2017,10,15,12,52,11.90
2017,10,15,12,53,12.00
2017,10,15,12,54,12.00
2017,10,15,12,55,12.00
2017,10,15,12,56,12.00
2017,10,15,12,57,12.10
2017,10,15,12,58,12.10
2017,10,15,12,59,12.10
2017,10,15,13,00,12.10
2017,10,15,13,01,12.10
2017,10,15,13,02,12.10
2017,10,15,13,03,12.10
2017,10,15,13,04,12.10
2017,10,15,13,05,12.20
2017,10,15,13,06,12.20
2017,10,15,13,07,12.20
2017,10,15,13,08,12.20
2017,10,15,13,09,12.30
2017,10,15,13,10,12.30
2017,10,15,13,11,12.30
2017,10,15,13,12,12.30
2017,10,15,13,13,12.30
2017,10,15,13,14,12.30
2017,10,15,13,15,12.40
2017,10,15,13,16,12.40
2017,10,15,13,17,12.40
2017,10,15,13,18,12.50
2017,10,15,13,19,12.50
2017,10,15,13,20,12.50
2017,10,15,13,21,12.50
2017,10,15,13,22,12.50
2017,10,15,13,23,12.50
2017,10,15,13,24,12.50
2017,10,15,13,25,12.60
2017,10,15,13,26,12.60
2017,10,15,13,27,12.60
2017,10,15,13,28,12.60
2017,10,15,13,29,12.70
2017,10,15,13,30,12.70
2017,10,15,13,31,12.70
2017,10,15,13,32,12.70
2017,10,15,13,33,12.70
2017,10,15,13,34,12.80
2017,10,15,13,35,12.80
2017,10,15,13,36,12.80
2017,10,15,13,37,12.80
2017,10,15,13,38,12.90
2017,10,15,13,39,12.90
2017,10,15,13,40,12.90
2017,10,15,13,41,12.90
2017,10,15,13,42,13.00
2017,10,15,13,43,13.00
2017,10,15,13,44,13.10
2017,10,15,13,45,13.10
2017,10,15,13,46,13.10
2017,10,15,13,47,13.10
2017,10,15,13,48,13.10
2017,10,15,13,49,13.20
2017,10,15,13,50,13.20
2017,10,15,13,51,13.20
2017,10,15,13,52,13.20
2017,10,15,13,53,13.30
2017,10,15,13,54,13.30
2017,10,15,13,55,13.30
2017,10,15,13,56,13.30
2017,10,15,13,57,13.30
2017,10,15,13,58,13.30
2017,10,15,13,59,13.30
2017,10,15,14,00,13.30
2017,10,15,14,01,13.30
2017,10,15,14,02,13.30
2017,10,15,14,03,13.30
2017,10,15,14,04,13.30
2017,10,15,14,05,13.40
2017,10,15,14,06,13.40
2017,10,15,14,07,13.40
2017,10,15,14,08,13.40
2017,10,15,14,09,13.40
2017,10,15,14,10,13.40
2017,10,15,14,11,13.50
2017,10,15,14,12,13.50
2017,10,15,14,13,13.50
2017,10,15,14,14,13.50
2017,10,15,14,15,13.50
2017,10,15,14,16,13.50
2017,10,15,14,17,13.50
2017,10,15,14,18,13.50
2017,10,15,14,19,13.50
2017,10,15,14,20,13.50
2017,10,15,14,21,13.50
2017,10,15,14,22,13.60
2017,10,15,14,23,13.60
2017,10,15,14,24,13.60
2017,10,15,14,25,13.60
2017,10,15,14,26,13.70
2017,10,15,14,27,13.70
2017,10,15,14,28,13.70
2017,10,15,14,29,13.70
2017,10,15,14,30,13.70
2017,10,15,14,31,13.70
2017,10,15,14,32,13.70
2017,10,15,14,33,13.80
2017,10,15,14,34,13.80
2017,10,15,14,35,13.80
2017,10,15,14,36,13.90
2017,10,15,14,37,13.90
2017,10,15,14,38,13.90
2017,10,15,14,39,14.00
2017,10,15,14,40,14.00
2017,10,15,14,41,14.00
2017,10,15,14,42,14.00
2017,10,15,14,43,14.00
2017,10,15,14,44,14.00
2017,10,15,14,45,14.10
2017,10,15,14,46,14.10
2017,10,15,14,47,14.10
2017,10,15,14,48,14.10
2017,10,15,14,49,14.10
2017,10,15,14,50,14.10
2017,10,15,14,51,14.10
2017,10,15,14,52,14.10
2017,10,15,14,53,14.10
2017,10,15,14,54,14.00
2017,10,15,14,55,14.00
2017,10,15,14,56,14.10
2017,10,15,14,57,14.10
2017,10,15,14,58,14.10
2017,10,15,14,59,14.10
2017,10,15,15,00,14.10
2017,10,15,15,01,14.10
2017,10,15,15,02,14.10
2017,10,15,15,03,14.10
2017,10,15,15,04,14.10
2017,10,15,15,05,14.10
2017,10,15,15,06,14.10
2017,10,15,15,07,14.10
2017,10,15,15,08,14.10
2017,10,15,15,09,14.10
2017,10,15,15,10,14.10
2017,10,15,15,11,14.10
2017,10,15,15,12,14.10
2017,10,15,15,13,14.10
2017,10,15,15,14,14.10
2017,10,15,15,15,14.10
2017,10,15,15,16,14.20
2017,10,15,15,17,14.20
2017,10,15,15,18,14.20
2017,10,15,15,19,14.20
2017,10,15,15,20,14.20
2017,10,15,15,21,14.30
2017,10,15,15,22,14.30
2017,10,15,15,23,14.30
2017,10,15,15,24,14.30
2017,10,15,15,25,14.30
2017,10,15,15,26,14.30
2017,10,15,15,27,14.30
2017,10,15,15,28,14.30
2017,10,15,15,29,14.30
2017,10,15,15,30,14.30
2017,10,15,15,31,14.30
2017,10,15,15,32,14.30
2017,10,15,15,33,14.30
2017,10,15,15,34,14.30
2017,10,15,15,35,14.30
2017,10,15,15,36,14.30
2017,10,15,15,37,14.20
2017,10,15,15,38,14.20
2017,10,15,15,39,14.20
2017,10,15,15,40,14.20
2017,10,15,15,41,14.20
2017,10,15,15,42,14.20
2017,10,15,15,43,14.20
2017,10,15,15,44,14.20
2017,10,15,15,45,14.20
2017,10,15,15,46,14.20
2017,10,15,15,47,14.20
2017,10,15,15,48,14.20
2017,10,15,15,49,14.20
2017,10,15,15,50,14.20
2017,10,15,15,51,14.30
2017,10,15,15,52,14.30
2017,10,15,15,53,14.30
2017,10,15,15,54,14.30
2017,10,15,15,55,14.30
2017,10,15,15,56,14.30
2017,10,15,15,57,14.30
2017,10,15,15,58,14.40
2017,10,15,15,59,14.40
2017,10,15,16,00,14.40
2017,10,15,16,01,14.40
2017,10,15,16,02,14.50
2017,10,15,16,03,14.50
2017,10,15,16,04,14.50
2017,10,15,16,05,14.60
2017,10,15,16,06,14.60
2017,10,15,16,07,14.60
2017,10,15,16,08,14.60
2017,10,15,16,09,14.60
2017,10,15,16,10,14.60
2017,10,15,16,11,14.60
2017,10,15,16,12,14.60
2017,10,15,16,13,14.70
2017,10,15,16,14,14.70
2017,10,15,16,15,14.70
2017,10,15,16,16,14.70
2017,10,15,16,17,14.70
2017,10,15,16,18,14.70
2017,10,15,16,19,14.70
2017,10,15,16,20,14.80
2017,10,15,16,21,14.80
2017,10,15,16,22,14.80
2017,10,15,16,23,14.90
2017,10,15,16,24,14.90
2017,10,15,16,25,15.00
2017,10,15,16,26,15.00
2017,10,15,16,27,15.00
2017,10,15,16,28,15.00
2017,10,15,16,29,15.00
2017,10,15,16,30,15.00
2017,10,15,16,31,15.00
2017,10,15,16,32,15.00
2017,10,15,16,33,15.00
2017,10,15,16,34,15.00
2017,10,15,16,35,15.00
2017,10,15,16,36,15.00
2017,10,15,16,37,15.00
2017,10,15,16,38,15.00
2017,10,15,16,39,15.00
2017,10,15,16,40,15.00
2017,10,15,16,41,15.00
2017,10,15,16,42,15.00
2017,10,15,16,43,15.00
2017,10,15,16,44,15.00
2017,10,15,16,45,15.00
2017,10,15,16,46,15.00
2017,10,15,16,47,15.00
2017,10,15,16,48,15.00
2017,10,15,16,49,15.00
2017,10,15,16,50,15.00
2017,10,15,16,51,15.00
2017,10,15,16,52,15.00
2017,10,15,16,53,15.00
2017,10,15,16,54,15.00
2017,10,15,16,55,15.00
2017,10,15,16,56,15.00
2017,10,15,16,57,15.00
2017,10,15,16,58,15.00
2017,10,15,16,59,15.00
2017,10,15,17,00,15.00
2017,10,15,17,01,14.90
2017,10,15,17,02,14.90
2017,10,15,17,03,14.80
2017,10,15,17,04,14.80
2017,10,15,17,05,14.80
2017,10,15,17,06,14.70
2017,10,15,17,07,14.70
2017,10,15,17,08,14.70
2017,10,15,17,09,14.70
2017,10,15,17,10,14.70
2017,10,15,17,11,14.70
2017,10,15,17,12,14.70
2017,10,15,17,13,14.70
2017,10,15,17,14,14.60
2017,10,15,17,15,14.60
2017,10,15,17,16,14.50
2017,10,15,17,17,14.50
2017,10,15,17,18,14.50
2017,10,15,17,19,14.40
2017,10,15,17,20,14.40
2017,10,15,17,21,14.30
2017,10,15,17,22,14.30
2017,10,15,17,23,14.30
2017,10,15,17,24,14.30
2017,10,15,17,25,14.20
2017,10,15,17,26,14.20
2017,10,15,17,27,14.20
2017,10,15,17,28,14.20
2017,10,15,17,29,14.20
2017,10,15,17,30,14.10
2017,10,15,17,31,14.10
2017,10,15,17,32,14.10
2017,10,15,17,33,14.10
2017,10,15,17,34,14.10
2017,10,15,17,35,14.00
2017,10,15,17,36,14.00
2017,10,15,17,37,14.00
2017,10,15,17,38,14.00
2017,10,15,17,39,13.90
2017,10,15,17,40,13.90
2017,10,15,17,41,13.90
2017,10,15,17,42,13.90
2017,10,15,17,43,13.90
2017,10,15,17,44,13.80
2017,10,15,17,45,13.80
2017,10,15,17,46,13.80
2017,10,15,17,47,13.70
2017,10,15,17,48,13.70
2017,10,15,17,49,13.70
2017,10,15,17,50,13.70